#timestamp,LO_Frequency,Hit,StdDev 
1568782815.5,286046999.5,N
1568782835.4,286046996.9,Y
1568782855.2,286046999.3,P
1568782875.0,286046999.5,P
1568782875.9,286046999.5,P
1568782895.8,286046996.8,Y
1568782915.6,286046998.5,P
1568782935.5,286046998.2,P
1568782955.3,286047000.9,N
1568782975.1,286046998.6,N
1568782995.9,286047001.0,N
1568783015.7,286047002.5,N
1568783035.5,286046999.7,N
1568783055.4,286046998.1,N
1568783075.2,286047000.5,N
1568783095.1,286046998.2,N
1568783096.0,286046998.2,N
1568783115.8,286047000.4,N
1568783135.6,286047002.7,N
1568783155.5,286046998.1,N
1568783175.3,286047000.4,N
1568783195.2,286047001.5,N
1568783215.9,286047002.7,N
1568783235.7,286047002.6,N
1568783255.6,286047000.2,N
1568783275.4,286047001.6,N
1568783295.2,286047002.3,N
1568783315.1,286047000.2,N
1568783316.0,286047000.2,N
1568783335.8,286047000.9,N
1568783355.6,286046998.3,N
1568783375.5,286047000.6,N
1568783395.3,286046998.4,N
1568783415.2,286046998.9,N
1568783435.9,286047000.3,N
1568783455.7,286047001.3,N
1568783475.6,286047002.3,N
1568783495.4,286047002.3,N
1568783515.2,286046999.7,N
1568783535.1,286047000.5,N
1568783536.0,286047000.5,N
1568783555.8,286047000.4,N
1568783575.7,286047000.2,N
1568783595.5,286047000.6,N
1568783615.3,286046998.1,N
1568783635.2,286046998.2,N
1568783655.0,286047003.7,N
1568783655.9,286047003.7,N
1568783675.8,286047004.4,N
1568783695.6,286047001.9,N
1568783715.4,286047001.4,N
1568783735.3,286047002.6,N
1568783755.1,286047004.3,N
1568783775.8,286047005.9,Y
1568783795.7,286047001.5,P
1568783815.5,286046999.7,N
1568783835.4,286047001.1,N
1568783855.2,286046998.6,N
1568783875.0,286046998.1,N
1568783875.9,286046998.1,N
1568783895.8,286047002.6,N
1568783915.6,286047004.3,N
1568783935.4,286047003.8,N
1568783955.3,286047002.6,N
1568783975.1,286047001.5,N
1568783995.9,286047002.5,N
1568784015.7,286047002.2,N
1568784035.5,286047000.2,N
1568784055.4,286047000.2,N
1568784075.2,286047002.3,N
1568784095.0,286047002.4,N
1568784095.9,286047002.4,N
1568784115.8,286047004.2,N
1568784135.6,286047002.1,N
1568784155.5,286047004.2,N
1568784175.3,286047005.6,Y
1568784195.1,286047001.7,P
1568784215.9,286047001.4,P
1568784235.7,286047002.0,P
1568784255.5,286046999.7,N
1568784275.4,286047002.7,Y
1568784295.2,286047000.2,P
1568784315.1,286046999.7,N
1568784316.0,286046999.7,N
1568784335.8,286046998.1,N
1568784355.6,286047000.3,N
1568784375.5,286047000.7,N
1568784395.3,286047000.1,N
1568784415.1,286047001.1,N
1568784435.9,286047001.2,N
1568784455.7,286047000.9,N
1568784475.6,286047002.8,Y
1568784495.4,286046998.1,P
1568784515.2,286046998.3,N
1568784535.1,286046996.5,P
1568784536.0,286046996.5,N
1568784555.8,286046997.1,N
1568784575.7,286046999.6,N
1568784595.5,286046999.2,N
1568784615.3,286047000.0,N
1568784635.2,286047002.6,N
1568784655.9,286047000.1,N
1568784675.7,286047000.7,N
1568784695.6,286046998.6,N
1568784715.4,286047000.2,N
1568784735.2,286047000.8,N
1568784755.1,286047001.2,N
1568784756.0,286047001.2,N
1568784775.8,286046998.3,N
1568784795.7,286046998.4,N
1568784815.5,286046999.2,N
1568784835.3,286046997.5,N
1568784855.2,286046998.4,N
1568784875.0,286046996.9,N
1568784875.9,286046996.9,N
1568784895.8,286046998.6,N
1568784915.6,286046997.0,N
1568784935.4,286046998.9,N
1568784955.3,286046999.9,N
1568784975.1,286047000.2,N
1568784995.8,286046998.6,N
1568785015.7,286046996.9,N
1568785035.5,286046999.2,N
1568785055.4,286046997.0,N
1568785075.2,286046998.4,N
1568785095.0,286046998.8,N
1568785095.9,286046998.8,N
1568785115.8,286046998.3,N
1568785135.6,286046998.5,N
1568785155.4,286046998.5,N
1568785175.3,286047000.2,N
1568785195.1,286047000.9,N
1568785215.9,286047002.8,N
1568785235.7,286047000.3,N
1568785255.5,286047000.1,N
1568785275.4,286046998.1,N
1568785295.2,286046999.0,N
1568785315.0,286046996.9,N
1568785315.9,286046996.9,N
1568785335.8,286046999.4,N
1568785355.6,286046999.2,N
1568785375.5,286046999.5,N
1568785395.3,286046999.1,N
1568785415.1,286047001.2,N
1568785435.9,286047000.5,N
1568785455.7,286047001.1,N
1568785475.5,286047000.5,N
1568785495.4,286047002.7,N
1568785515.2,286047003.8,N
1568785535.1,286047002.2,N
1568785536.0,286047002.2,N
1568785555.8,286047004.2,N
1568785575.6,286047003.8,N
1568785595.5,286047003.1,N
1568785615.3,286047001.4,N
1568785635.1,286046999.8,N
1568785655.9,286047002.5,N
1568785675.7,286047003.2,N
1568785695.6,286047009.2,Y
1568785715.4,286047006.9,P
1568785735.2,286047006.8,N
1568785755.1,286047006.0,N
1568785756.0,286047006.0,N
1568785775.8,286047003.3,N
1568785795.7,286047004.3,N
1568785815.5,286047002.9,N
1568785835.3,286047002.1,N
1568785855.2,286047000.1,N
1568785875.0,286047000.3,N
1568785875.9,286047000.3,N
1568785895.7,286046998.9,N
1568785915.6,286046998.4,N
1568785935.4,286047000.7,N
1568785955.3,286047000.8,N
1568785975.1,286046998.7,N
1568785976.0,286046998.7,N
1568785995.8,286046997.1,N
1568786015.7,286046996.8,N
1568786035.5,286046999.1,N
1568786055.3,286046998.7,N
1568786075.2,286046997.0,N
1568786095.0,286046996.6,N
1568786095.9,286046996.6,N
1568786115.8,286046997.2,N
1568786135.6,286046997.2,N
1568786155.4,286046997.2,N
1568786175.3,286047000.1,N
1568786195.1,286046998.6,N
1568786215.8,286046996.5,N
1568786235.7,286046999.2,N
1568786255.5,286047000.3,N
1568786275.4,286047002.8,N
1568786295.2,286046998.8,N
1568786315.0,286047002.8,N
1568786315.9,286047002.8,N
1568786335.8,286046999.8,N
1568786355.6,286047004.7,N
1568786375.4,286047003.4,N
1568786395.3,286047003.3,N
